Skip Page Navigation
NASA JPL Caltech
NASA Logo - Jet Propulsion Laboratory + View the NASA Portal
+ Near-Earth Object (NEO) Program
Search JPL
JPL Home Earth Solar System Stars & Galaxies Technology
JPL Solar System Dynamics
BODIES ORBITS EPHEMERIDES TOOLS PHYSICAL DATA DISCOVERY FAQ SITE MAP
JPL Small-Body Database Browser
Search: [ help ]  
11174 Carandrews (1998 FR67)
Classification: Main-belt Asteroid          SPK-ID: 2011174
Ephemeris | Orbit Diagram | Orbital Elements | Physical Parameters | Discovery Circumstances ]

[ show orbit diagram ]
Orbital Elements at Epoch 2456400.5 (2013-Apr-18.0) TDB
Reference: MPO253443 (heliocentric ecliptic J2000)
 Element Value Uncertainty (1-sigma)   Units 
e 0.0938623 n/a  
a 2.2118994 n/a AU
q 2.0042854 n/a AU
i 3.06307 n/a deg
node 86.93185 n/a deg
peri 178.57794 n/a deg
M 144.46385 n/a deg
tp 2455918.3266866
(2011-Dec-22.82668660)
n/a JED
period 1201.5628327
3.29
n/a
n/a
d
yr
n 0.29960980 n/a deg/d
Q 2.4195134 n/a AU
  Orbit Determination Parameters
   # obs. used (total)      832  
   first obs. used      1976-??-??  
   last obs. used      2013-02-03  
   # oppositions      14  
   planetary ephem.      DE403  
   condition code      0  
   fit RMS      0.52  
   data source      MPC:mpn  
   producer      MPCLINUX  

Additional Information
 T_jup = 3.649 

Ephemeris | Orbit Diagram | Orbital Elements | Physical Parameters | Discovery Circumstances ]

Physical Parameter Table
Parameter Symbol Value Units Sigma Reference Notes
absolute magnitude H 15.1 mag n/a PDS3 (MPC 35256)  

11174 Carandrews           Discovered 1998 Mar. 20 by the Lincoln Laboratory Near-Earth Asteroid Research Team at Socorro.
Carolyn Marie Andrews (b. 1984) is a finalist in the 2002 Intel International Science and Engineering Fair for her engineering project. She attends the Lake Brantley High School, Longwood, Florida, U.S.A.
NOTE: some special characters may not display properly (any characters within {} are an attempt to place the proper accent above a character)
Reference: 20020724/MPCPages.arcLast Updated: 2003-10-02

Alternate Designations
 1998 FR67 = 1976 UQ12 = 1976 WL 
Ephemeris | Orbit Diagram | Orbital Elements | Physical Parameters | Discovery Circumstances ]
ABOUT SSD CREDITS/AWARDS PRIVACY/COPYRIGHT GLOSSARY LINKS
FirstGov 2013-May-23 19:40 UT
(server date/time)  
NASA Home Page
Site Manager:   Donald K. Yeomans
Webmaster  Alan B. Chamberlin